Location: Cassano d�Adda
(45.5333°N, 9.5167°E)
Time: 10:40:49
(UTC+00:00)

NOAA 15 - Pass Details

Date: 08 December 2019
Orbit: 798 x 812 km, 98.7° (Epoch: 24 January)

Event Time Altitude Azimuth Distance (km) Brightness Sun altitude
Rises 17:43:25 0° 163° (SSE) 3,304 7.7 -21.0°
Reaches altitude 10° 17:45:45 10° 163° (SSE) 2,376 7.0 -21.4°
Maximum altitude 17:51:00 89° 77° (ENE) 809 4.5 -22.3°
Drops below altitude 10° 17:56:18 10° 346° (NNW) 2,385 7.1 -23.3°
Sets 17:58:38 0° 346° (NNW) 3,318 7.9 -23.7°
